Regional Weather Roundup
Issued by NWS

Home | Current Version | Previous Version | Graphics & Text | Print | Product List | Glossary On
Versions: 1 2 3 4 5 6 7 8 9 10 11 12 13 14 15 16 17 18 19 20 21 22 23 24 25 26 27 28 29 30 31 32 33 34 35 36 37 38 39 40 41 42 43 44 45 46 47 48 49 50
000
ASUS43 KDMX 291307
RWRIA

WEATHER ROUNDUP FOR IOWA
NATIONAL WEATHER SERVICE DES MOINES IA
800 AM CDT TUE JUL 29 2014

NOTE: "FAIR" INDICATES FEW OR NO CLOUDS BELOW 12,000 FEET WITH NO
SIGNIFICANT WEATHER AND/OR OBSTRUCTIONS TO VISIBILITY.

* - THESE STATIONS ARE NOT NWS STATIONS...THUS NOT UNDER NWS
QUALITY CONTROL.  THEY ALSO DO NOT REPORT WEATHER SUCH
AS PRECIPITATION OR FOG.

IAZ001>003-012>014-020>022-031>034-043>046-291400-
   NORTHWEST IOWA

CITY           SKY/WX    TMP DP  RH WIND       PRES   REMARKS
CARROLL *      SUNNY     59  55  88 NW5       30.20R
CHEROKEE *     SUNNY     54  54 100 CALM      30.22R
DENISON *      SUNNY     55  55 100 CALM      30.19S
LE MARS *      SUNNY     55  54  94 CALM      30.23R
ORANGE CITY *  SUNNY     61  54  77 N3        30.22R
SHELDON *      SUNNY     55  54  94 CALM      30.21R
SIOUX CITY     SUNNY     60  57  89 N5        30.23R
SPENCER        SUNNY     57  53  86 NW5       30.20R
STORM LAKE *   SUNNY     59  57  94 N5        30.21R
$$

IAZ055>058-069>071-079>083-090>094-291400-
   SOUTHWEST IOWA

CITY           SKY/WX    TMP DP  RH WIND       PRES   REMARKS
ATLANTIC *     SUNNY     57  55  94 CALM      30.20R
AUDUBON *      SUNNY     63  57  82 CALM      30.21R
CLARINDA *     SUNNY     59  59 100 CALM      30.21S
COUNCIL BLFS * SUNNY     61  61 100 CALM      30.20R
CRESTON *      SUNNY     61  57  88 NW3       30.19R
HARLAN  *      SUNNY     57  57 100 CALM      30.24S
LAMONI         SUNNY     63  58  83 NW3       30.18R
RED OAK *      SUNNY     61  59  94 CALM      30.20S FOG
SHENANDOAH *   SUNNY     57  57 100 CALM      30.21S
$$

IAZ047>049-059>061-072>074-084-291400-
   CENTRAL IOWA

CITY           SKY/WX    TMP DP  RH WIND       PRES   REMARKS
AMES           SUNNY     61  56  83 N7        30.16S
ANKENY *       SUNNY     63  57  82 CALM      30.17R
CHARITON *     SUNNY     61  59  94 NW5       30.17R
DES MOINES     MOSUNNY   62  55  77 NW5       30.16R
GRINNELL*      SUNNY     59  55  88 NW5       30.16S
KNOXVILLE *    SUNNY     59  57  94 NW5       30.14S
MARSHALLTOWN   SUNNY     59  56  89 NW6       30.15R
PELLA *        SUNNY     61  59  94 N3        30.16S
PERRY *          N/A     59  57  94 NW3       30.18R
$$

IAZ004>006-015-016-023>025-035-036-291400-
   NORTH CENTRAL IOWA

CITY           SKY/WX    TMP DP  RH WIND       PRES   REMARKS
ALGONA *       SUNNY     59  55  88 NW8       30.19R
CLARION *      SUNNY     57  55  94 N5        30.17S
ESTHERVILLE    SUNNY     58  54  86 NW7       30.19R
FORT DODGE *   SUNNY     57  54  88 NW3       30.19R
MASON CITY     SUNNY     59  56  89 NW7       30.18R
FOREST CITY *  SUNNY     59  55  88 NE5       30.17R
IOWA FALLS *     N/A     59  55  88 W6        30.17S
$$

IAZ007>011-017>019-026>030-037>042-050>054-066-291400-
   NORTHEAST IOWA

CITY           SKY/WX    TMP DP  RH WIND       PRES   REMARKS
CEDAR RAPIDS   SUNNY     59  56  89 W5        30.13R
CHARLES CITY * SUNNY     59  57  94 NW5       30.15S
CLINTON *      SUNNY     57  54  88 W6        30.13S
DECORAH *      SUNNY     59  55  88 VRB3      30.12S
DUBUQUE        SUNNY     61  56  83 CALM      30.12R
MONTICELLO *   SUNNY     59  57  94 CALM      30.12R
OELWEIN *      SUNNY     57  55  94 NW7       30.14S
WATERLOO       SUNNY     59  56  89 NW6       30.13S
$$

IAZ064-065-067-068-078-291400-
   EAST CENTRAL IOWA

CITY           SKY/WX    TMP DP  RH WIND       PRES   REMARKS
DAVENPORT      SUNNY     59  55  87 W6        30.12S FOG
IOWA CITY      SUNNY     63  57  81 NW6       30.14S
MT. PLEASANT * SUNNY     63  55  77 NW3       30.14S
MUSCATINE *    SUNNY     63  57  82 NW6       30.13S
QUAD CITIES    SUNNY     62  57  83 W7        30.12R
$$

IAZ062-063-075>077-085>089-095>099-291400-
   SOUTHEAST IOWA

CITY           SKY/WX    TMP DP  RH WIND       PRES   REMARKS
BURLINGTON     SUNNY     61  58  90 NW5       30.14R
FAIRFIELD *    SUNNY     61  57  88 NW6       30.15R
FORT MADISON * SUNNY     63  61  94 NW3       30.15R
KEOKUK *       SUNNY     61  59  94 NW3       30.14R
OSKALOOSA *      N/A     61  59  94 N3        30.15S
CENTERVILLE *  SUNNY     61  61 100 NW3       30.17S
OTTUMWA        SUNNY     62  58  86 NW5       30.14S
WASHINGTON *   SUNNY     61  59  94 NW5       30.14S
$$

ABBREVIATIONS USED IN REMARKS
   TC - TEMPERATURES IN CELSIUS
  WCI - WIND CHILL INDEX
   HX - HEAT INDEX
  VSB - VISIBILITY
$$



USA.gov is the U.S. government's official web portal to all federal, state and local government web resources and services.